Ponca City, OK

8:35 AM CDT on July 24, 2016 (GMT -0500)
Ponca City Municipal

Weather History for KPNC - March, 2014

Change the Weather History Date:

Tuesday, March 25, 2014

  Actual Average Record
Temperature  
Mean Temperature 38 °F -  
Max Temperature 52 °F 64 °F 87 °F (1950)
Min Temperature 24 °F 37 °F 16 °F (1955)
Degree Days  
Heating Degree Days 28    
Moisture  
Dew Point 21 °F    
Average Humidity 54    
Maximum Humidity 85    
Minimum Humidity 31    
Precipitation  
Precipitation 0.00 in - - ()
Sea Level Pressure  
Sea Level Pressure 30.33 in    
Wind  
Wind Speed 4 mph (NE)    
Max Wind Speed 15 mph    
Max Gust Speed 17 mph    
Visibility 10 miles    
Events      
Averages and records for this station are not official NWS values.
T = Trace of Precipitation, MM = Missing Value Source: NWS Daily Summary

Daily Weather History Graph

Daily Weather History Graph

Search for Another Location

Airport or City:

Trip Planner

Search our weather history database for the weather conditions in past years. The results will help you decide how hot, cold, wet, or windy it might be!

Date:

Astronomy

Mar. 25, 2014 Rise Set
Actual Time 7:24 AM CDT 7:44 PM CDT
Civil Twilight 6:58 AM CDT 8:10 PM CDT
Nautical Twilight 6:28 AM CDT 8:40 PM CDT
Astronomical Twilight 5:57 AM CDT 9:11 PM CDT
Moon 3:39 AM CDT (3/25) 2:24 PM CDT (3/25)
Length of Visible Light 13h 11m
Length of Day
12h 20m
Waning Crescent, 32% of the Moon is Illuminated
Mar 25
Waning Crescent
Mar 30
New
Apr 7
First Quarter
Apr 15
Full
Apr 22
Last Quarter

Hourly Weather History & Observations

Time (CDT) Temp. Windchill Dew Point Humidity Pressure Visibility Wind Dir Wind Speed Gust Speed Precip Events Conditions
12:53 AM 28.9 °F - 23.0 °F 78% 30.30 in 10.0 mi Calm Calm - N/A   Clear
1:53 AM 28.0 °F - 21.9 °F 78% 30.29 in 10.0 mi Calm Calm - N/A   Clear
2:53 AM 25.0 °F 20.7 °F 21.0 °F 85% 30.30 in 10.0 mi North 3.5 mph - N/A   Clear
3:53 AM 24.1 °F - 19.0 °F 81% 30.31 in 10.0 mi Calm Calm - N/A   Clear
4:53 AM 26.1 °F - 21.0 °F 81% 30.33 in 7.0 mi Calm Calm - N/A   Clear
5:53 AM 27.0 °F - 21.9 °F 81% 30.37 in 8.0 mi Calm Calm - N/A   Clear
6:53 AM 27.0 °F 19.5 °F 21.0 °F 78% 30.39 in 10.0 mi NNE 6.9 mph - N/A   Partly Cloudy
7:53 AM 27.0 °F 20.5 °F 21.0 °F 78% 30.41 in 9.0 mi NE 5.8 mph - N/A   Clear
8:53 AM 36.0 °F 28.5 °F 25.0 °F 64% 30.43 in 10.0 mi NNE 10.4 mph - N/A   Clear
9:53 AM 39.9 °F 31.8 °F 24.1 °F 53% 30.45 in 10.0 mi NNE 15.0 mph - N/A   Clear
10:53 AM 43.0 °F 35.7 °F 24.1 °F 47% 30.46 in 10.0 mi NNE 15.0 mph - N/A   Clear
11:53 AM 45.0 °F 40.6 °F 21.0 °F 39% 30.45 in 10.0 mi NE 8.1 mph 17.3 mph N/A   Clear
12:53 PM 46.9 °F - 21.0 °F 36% 30.43 in 10.0 mi NNE 9.2 mph - N/A   Clear
1:53 PM 48.0 °F - 21.0 °F 34% 30.39 in 10.0 mi NNE 10.4 mph 16.1 mph N/A   Clear
2:53 PM 48.9 °F - 21.0 °F 33% 30.36 in 10.0 mi Calm Calm - N/A   Clear
3:53 PM 51.1 °F - 21.9 °F 32% 30.32 in 10.0 mi Variable 3.5 mph - N/A   Clear
4:53 PM 50.0 °F - 19.9 °F 31% 30.29 in 10.0 mi Calm Calm - N/A   Clear
5:53 PM 50.0 °F - 19.9 °F 31% 30.27 in 10.0 mi South 3.5 mph - N/A   Clear
6:53 PM 50.0 °F - 19.9 °F 31% 30.25 in 10.0 mi Calm Calm - N/A   Clear
7:53 PM 46.9 °F - 19.9 °F 34% 30.24 in 10.0 mi Calm Calm - N/A   Clear
8:53 PM 44.1 °F 41.5 °F 21.0 °F 40% 30.23 in 10.0 mi East 4.6 mph - N/A   Clear
9:53 PM 39.9 °F 35.1 °F 21.0 °F 47% 30.23 in 10.0 mi ESE 6.9 mph - N/A   Clear
10:53 PM 39.9 °F 33.9 °F 19.9 °F 45% 30.21 in 10.0 mi SE 9.2 mph - N/A   Clear
11:53 PM 39.0 °F 31.4 °F 21.0 °F 49% 30.20 in 10.0 mi SE 12.7 mph - N/A   Clear